Flag for U.S.A. Weather past 2 weeks in Pasadena, Texas, U.S.A.

Now
90 °F

Partly sunny.


Feels Like: 100 °F
Forecast: 77 / 90 °F
Wind: 3 mph from North

Location: Houston / Ellington

Current Time: Jul 24, 2014 at 1:48:55 PM

Latest Report: Jul 24, 2014 at 12:50 PM


Visibility: 5 mi

Pressure: 30.02 "Hg

Humidity: 63%

Dew point: 75 °F

Location of PasadenaLocation

Historic Weather in Pasadena — Graph

°F

Pasadena temperature yesterday

Maximum temperature yesterday: 91 °F (at 4:50 PM)
Minimum temperature yesterday: 75 °F (at 8:50 AM)
Average temperature yesterday: 84 °F

Past Weeks' High & Low Weather Summary

 TemperatureHumidityPressure
High97 °F (Jul 14, 1:50 PM)100% (Jul 9, 1:50 PM)30.16 "Hg (Jul 9, 1:50 PM)
Low73 °F (Jul 19, 3:50 AM)47% (Jul 11, 2:50 PM)29.86 "Hg (Jul 17, 5:50 PM)
Average83 °F77%30.01 "Hg
* Reported Jul 9 11:50 AM — Jul 24 11:50 AM, Pasadena, Weather by CustomWeather, © 2014

Note: Actual official high and low records may vary slightly from our data, if they occured in-between our weather recording intervals... More about our weather records

Advertising

Pasadena weather history for previous 24 hours

 ConditionsComfort  
Time TempWeatherWind HumidityBarometerVisibility
11:50 AM
Jul 24
90 °FPartly sunny.3 mph71%30.04 "Hg5 mi
10:50 AM90 °FPartly sunny.3 mph71%30.05 "Hg5 mi
9:50 AM88 °FScattered clouds.3 mph70%30.03 "Hg10 mi
8:50 AM81 °FScattered clouds.No wind74%30.03 "Hg10 mi
7:50 AM77 °FScattered clouds.3 mph89%30.02 "Hg10 mi
6:50 AM75 °FPassing clouds.5 mph89%30.00 "Hg10 mi
5:50 AM75 °FPassing clouds.No wind89%29.99 "Hg10 mi
4:50 AM75 °FPassing clouds.3 mph89%29.98 "Hg10 mi
3:50 AM75 °FPassing clouds.3 mph94%29.98 "Hg10 mi
2:50 AM77 °FPassing clouds.3 mph89%29.99 "Hg10 mi
1:50 AM77 °FPassing clouds.No wind89%30.00 "Hg10 mi
12:50 AM79 °FPartly cloudy.No wind84%30.03 "Hg10 mi
11:50 PM
Jul 23
82 °FPartly cloudy.9 mph74%30.00 "Hg10 mi
10:50 PM84 °FPassing clouds.No wind74%30.02 "Hg10 mi
9:50 PM86 °FPartly cloudy.3 mph70%30.03 "Hg10 mi
8:50 PM86 °FScattered clouds.3 mph70%30.00 "Hg10 mi
7:50 PM88 °FPartly sunny.No wind66%29.98 "Hg10 mi
5:50 PM90 °FPassing clouds.6 mph63%29.96 "Hg10 mi
4:50 PM91 °FScattered clouds.3 mph52%29.98 "Hg10 mi
3:50 PM90 °FScattered clouds.6 mph52%30.01 "Hg10 mi
2:50 PM90 °FScattered clouds.5 mph59%30.03 "Hg8 mi
1:50 PM88 °FBroken clouds.9 mph66%30.04 "Hg6 mi
Weather by CustomWeather, © 2014

See weather overviewHow to use our weather pages